Home > Weather > Nesodden > Past weeks

Flag for Norway Past Weather in Nesodden, Norway — Yesterday and Last 2 Weeks

Now
52 °F

Light rain. Partly sunny.


Feels Like: 47 °F
Forecast: 50 / 59 °F
Wind: 15 mph from East

Location: Statfjord B

Current Time: Jul 1, 2016 at 10:52:16 PM

Latest Report: Jul 1, 2016 at 9:50 PM


Visibility: N/A

Pressure: 29.45 "Hg

Humidity: 94%

Dew Point: 50 °F

Location of NesoddenLocation

Past Weather in Nesodden — Graph

°F

Nesodden Temperature Yesterday

Maximum temperature yesterday: 57 °F (at 12:20 AM)
Minimum temperature yesterday: 52 °F (at 2:20 PM)
Average temperature yesterday: 54 °F

High & Low Weather Summary for the Past Weeks

 TemperatureHumidityPressure
High59 °F (Jun 23, 4:20 PM)100% (Jun 20, 11:50 AM)30.09 "Hg (Jun 20, 11:50 AM)
Low46 °F (Jun 18, 12:20 PM)51% (Jun 19, 7:20 PM)29.42 "Hg (Jun 30, 12:50 AM)
Average52 °F88%29.82 "Hg
* Reported Jun 16 9:20 PM — Jul 1 9:20 PM, Nesodden, Weather by CustomWeather, © 2016

Note: Actual official high and low records may vary slightly from our data, if they occured in-between our weather recording intervals... More about our weather records

Advertising

Nesodden Weather History for the Previous 24 Hours

Scroll right to see more
 ConditionsComfort  
Time TempWeatherWind HumidityBarometerVisibility
9:20 PM
Fri, Jul 1
52 °FLight rain. Partly sunny.17 mph94%29.45 "Hg4 mi
8:50 PM54 °FLight rain. Partly sunny.16 mph94%29.45 "Hg4 mi
8:20 PM54 °FSprinkles. More clouds than sun.10 mph94%29.45 "HgN/A
7:50 PM54 °FPartly sunny.12 mph88%29.45 "HgN/A
7:20 PM54 °FDrizzle. Partly sunny.12 mph88%29.45 "HgN/A
6:50 PM54 °FDrizzle. Overcast.12 mph88%29.45 "HgN/A
6:20 PM54 °FLight rain. Partly sunny.15 mph88%29.47 "HgN/A
5:50 PM55 °FPartly sunny.15 mph82%29.47 "HgN/A
5:20 PM55 °FPartly sunny.17 mph82%29.47 "HgN/A
4:50 PM55 °FOvercast.18 mph82%29.47 "HgN/A
4:20 PM55 °FPartly sunny.20 mph82%29.47 "HgN/A
3:50 PM55 °FPartly sunny.23 mph82%29.47 "HgN/A
3:20 PM55 °FBroken clouds.23 mph77%29.47 "HgN/A
2:50 PM55 °FPartly sunny.26 mph82%29.47 "HgN/A
2:20 PM55 °FPartly sunny.25 mph82%29.47 "HgN/A
1:50 PM55 °FPartly sunny.26 mph88%29.47 "HgN/A
1:20 PM54 °FSprinkles. Partly sunny.26 mph94%29.47 "HgN/A
12:50 PM54 °FRain showers. Partly sunny.32 mph88%29.50 "Hg4 mi
12:20 PM55 °FSprinkles. Partly sunny.31 mph94%29.47 "Hg5 mi
11:50 AM55 °FLight rain. Partly sunny.28 mph94%29.50 "Hg6 mi
11:20 AM55 °FPartly sunny.31 mph94%29.47 "HgN/A
10:50 AM55 °FPartly sunny.31 mph94%29.47 "HgN/A
10:20 AM55 °FPartly sunny.29 mph94%29.47 "HgN/A
9:50 AM55 °FBroken clouds.28 mph94%29.47 "HgN/A
9:20 AM55 °FPartly sunny.30 mph94%29.47 "HgN/A
8:50 AM55 °FPassing clouds.31 mph94%29.47 "HgN/A
8:20 AM55 °FSprinkles. Partly sunny.31 mph94%29.47 "HgN/A
7:50 AM55 °FPassing clouds.33 mph94%29.47 "HgN/A
7:20 AM55 °FPartly sunny.29 mph94%29.50 "HgN/A
6:50 AM55 °FPartly sunny.29 mph94%29.50 "HgN/A
6:20 AM55 °FPartly sunny.28 mph94%29.50 "HgN/A
5:50 AM55 °FBroken clouds.28 mph94%29.50 "HgN/A
5:20 AM55 °FPartly sunny.28 mph94%29.50 "HgN/A
4:50 AM55 °FPartly cloudy.28 mph94%29.50 "HgN/A
4:20 AM55 °FPassing clouds.28 mph94%29.50 "HgN/A
3:50 AM55 °FPassing clouds.28 mph94%29.50 "HgN/A
3:20 AM55 °FPartly cloudy.29 mph88%29.50 "HgN/A
2:50 AM55 °FPassing clouds.30 mph88%29.50 "HgN/A
2:20 AM55 °FPartly cloudy.31 mph88%29.53 "HgN/A
1:50 AM55 °FPassing clouds.31 mph88%29.53 "HgN/A
1:20 AM55 °FPassing clouds.31 mph88%29.53 "HgN/A
12:50 AM55 °FPassing clouds.29 mph88%29.53 "HgN/A
12:20 AM55 °FPassing clouds.28 mph88%29.53 "HgN/A
11:50 PM
Thu, Jun 30
55 °FPassing clouds.28 mph82%29.53 "HgN/A
11:20 PM55 °FBroken clouds.26 mph82%29.56 "HgN/A
10:50 PM54 °FPartly sunny.23 mph88%29.56 "HgN/A
10:20 PM55 °FCool.24 mph82%29.56 "HgN/A
Weather by CustomWeather, © 2016

See weather overviewHow to use our weather pages